Tracking 19905 objects as of 17-Oct-2019
HD Live streaming from Space Station
objects crossing your sky now

CZ-4C DEB

Track CZ-4C DEB now!
10-day predictions


NORAD ID: 39231
Int'l Code: 2013-037H
Perigee: 675.1 km
Apogee: 1,046.1 km
Inclination: 98.1 °
Period: 102.0 minutes
Semi major axis: 7231 km
RCS: Unknown
Launch date: July 19, 2013
Source: People's Republic of China (PRC)
Launch site: Taiyaun Space Center, China (TSC)

Note: This is SATELLITE DEBRIS
aabbcc
Your satellite tracking list
Your tracking list is empty




NASA's NSSDC Master Catalog

Two Line Element Set (TLE):
1 39231U 13037H   19287.74735710  .00000218  00000-0  10309-3 0  9990
2 39231  98.0761 122.0973 0256486 102.1861 260.8165 14.11730212316050
Source of the keplerian elements: AFSPC